Weather History for Bowling Green, KY

Change the Weather History Date:

Sunday, March 30, 2014

  Actual Average Record
Temperature  
Mean Temperature 48 °F 53 °F  
Max Temperature 60 °F 65 °F 87 °F (1910)
Min Temperature 36 °F 41 °F 22 °F (1964)
Degree Days  
Heating Degree Days 17 13  
Month to date heating degree days 638 508  
Since 1 July heating degree days 4247 3706  
Cooling Degree Days 0 0  
Month to date cooling degree days 0 0  
Year to date cooling degree days 0 0  
Moisture  
Dew Point 30 °F    
Average Humidity 54    
Maximum Humidity 79    
Minimum Humidity 28    
Precipitation  
Precipitation 0.00 in 0.15 in 2.70 in (1914)
Month to date precipitation 3.73 4.26  
Year to date precipitation 10.90 11.83  
Snow  
Snow 0.00 in 0.10 in 7.50 in (1987)
Month to date snowfall 5.1 1.1  
Since 1 July snowfall 10.4 8.9  
Snow Depth 0.00 in    
Sea Level Pressure  
Sea Level Pressure 30.21 in    
Wind  
Wind Speed 3 mph (NNW)    
Max Wind Speed 12 mph    
Max Gust Speed 16 mph    
Visibility 10 miles    
Events      
T = Trace of Precipitation, MM = Missing Value Source: NWS Daily Summary

Daily Weather History Graph

Daily Weather History Graph

Search for Another Location

Airport:

Trip Planner

Search our weather history database for the weather conditions in past years. The results will help you decide how hot, cold, wet, or windy it might be!

Date:

Astronomy

Mar. 30, 2014 Rise Set
Actual Time 6:34 AM CDT 7:06 PM CDT
Civil Twilight 6:08 AM CDT 7:32 PM CDT
Nautical Twilight 5:37 AM CDT 8:03 PM CDT
Astronomical Twilight 5:06 AM CDT 8:34 PM CDT
Moon 6:19 AM CDT (3/30) 7:17 PM CDT (3/30)
Length of Visible Light 13h 24m
Length of Day
12h 32m
Waning Crescent, 0% of the Moon is Illuminated
Mar 30
Waning Crescent
Mar 30
New
Apr 7
First Quarter
Apr 15
Full
Apr 22
Last Quarter

Hourly Weather History & Observations

Time (CDT) Temp. Windchill Dew Point Humidity Pressure Visibility Wind Dir Wind Speed Gust Speed Precip Events Conditions
12:53 AM 41.0 °F 38.0 °F 34.0 °F 76% 30.21 in 9.0 mi NNW 4.6 mph - N/A   Overcast
1:53 AM 41.0 °F 35.2 °F 32.0 °F 70% 30.20 in 10.0 mi NNW 9.2 mph - N/A   Overcast
2:53 AM 39.9 °F 35.8 °F 32.0 °F 73% 30.20 in 10.0 mi Variable 5.8 mph - N/A   Overcast
3:53 AM 39.9 °F 35.8 °F 32.0 °F 73% 30.21 in 10.0 mi North 5.8 mph - N/A   Overcast
4:53 AM 39.9 °F 35.1 °F 32.0 °F 73% 30.23 in 10.0 mi NNW 6.9 mph - N/A   Overcast
5:53 AM 37.9 °F 32.7 °F 30.0 °F 73% 30.25 in 10.0 mi NNW 6.9 mph - N/A   Overcast
6:53 AM 37.9 °F 34.4 °F 30.0 °F 73% 30.25 in 9.0 mi North 4.6 mph - N/A   Overcast
7:24 AM 37.0 °F 33.3 °F 30.0 °F 76% 30.25 in 9.0 mi North 4.6 mph - N/A   Scattered Clouds
7:53 AM 37.9 °F 34.4 °F 30.0 °F 73% 30.27 in 9.0 mi North 4.6 mph - N/A   Clear
8:53 AM 39.9 °F 36.7 °F 30.9 °F 70% 30.27 in 10.0 mi Variable 4.6 mph - N/A   Clear
9:53 AM 43.0 °F - 30.9 °F 62% 30.26 in 10.0 mi Calm Calm - N/A   Clear
10:53 AM 46.0 °F 42.5 °F 32.0 °F 58% 30.28 in 10.0 mi WNW 6.9 mph - N/A   Clear
11:53 AM 48.9 °F - 30.0 °F 48% 30.27 in 10.0 mi Variable 3.5 mph - N/A   Clear
12:53 PM 52.0 °F - 28.9 °F 41% 30.25 in 10.0 mi Calm Calm - N/A   Clear
1:53 PM 55.9 °F - 30.0 °F 37% 30.22 in 10.0 mi Variable 4.6 mph - N/A   Clear
2:53 PM 57.0 °F - 28.0 °F 33% 30.19 in 10.0 mi Calm Calm - N/A   Clear
3:53 PM 57.9 °F - 27.0 °F 31% 30.16 in 10.0 mi East 3.5 mph - N/A   Clear
4:53 PM 59.0 °F - 27.0 °F 29% 30.15 in 10.0 mi West 5.8 mph - N/A   Clear
5:53 PM 59.0 °F - 26.1 °F 28% 30.16 in 10.0 mi Variable 4.6 mph - N/A   Clear
6:53 PM 57.0 °F - 25.0 °F 29% 30.17 in 10.0 mi NNW 3.5 mph - N/A   Clear
7:53 PM 48.9 °F - 28.9 °F 46% 30.17 in 10.0 mi Calm Calm - N/A   Clear
8:53 PM 45.0 °F - 30.0 °F 56% 30.17 in 10.0 mi Calm Calm - N/A   Clear
9:53 PM 44.1 °F - 30.9 °F 60% 30.17 in 10.0 mi Calm Calm - N/A   Clear
10:53 PM 39.9 °F - 32.0 °F 73% 30.17 in 10.0 mi Calm Calm - N/A   Clear
11:53 PM 39.9 °F - 33.1 °F 77% 30.18 in 10.0 mi Calm Calm - N/A   Clear